Regional Weather Roundup
Issued by NWS Bismarck, ND

Home | Current Version | Previous Version | Text Only | Print | Product List | Glossary On
Versions: 1 2 3 4 5 6 7 8 9 10 11 12 13 14 15 16 17 18 19 20 21 22 23 24 25 26 27 28 29 30 31 32 33 34 35 36 37 38 39 40 41 42 43 44 45 46 47 48 49 50
000
ASUS43 KBIS 010001
RWRBIS

NWR BROADCAST TEXT
NATIONAL WEATHER SERVICE BISMARCK ND
600 PM CST SAT FEB 28 2015

NOTE: "FAIR" INDICATES FEW OR NO CLOUDS BELOW 12,000 FEET WITH NO
SIGNIFICANT WEATHER AND/OR OBSTRUCTIONS TO VISIBILITY.


CITY           SKY/WX    TMP DP  RH WIND       PRES   REMARKS
WILLISTON      CLEAR     15   3  59 NW6       30.14F WCI   6
MINOT          CLEAR     10   1  67 W16       30.13S WCI  -7
MINOT AFB      NOT AVBL
BISMARCK       CLEAR     17   2  51 NW13      30.17R WCI   4
DICKINSON      PTCLDY    17   4  56 NW16      30.08S WCI   2
GARRISON         N/A     11   2  67 NW15      30.13S WCI  -5
HETTINGER ARPT MOCLDY    18   4  54 W18       30.12R WCI   2
JAMESTOWN      MOCLDY    14   5  67 NW13      30.14R WCI   0
CARRINGTON     FAIR       9   3  78 MISG      30.14R
CROSBY         FAIR       9   1  72 NW9       30.13S WCI  -5
HAZEN          CLOUDY    14   5  67 N12       30.17R WCI   0
OAKES            N/A     23  16  74 W12       30.14R WCI  12
WATFORD CITY   FAIR      14   1  57 NW7       30.11F WCI   4
$$

CITY           SKY/WX    TMP DP  RH WIND       PRES   REMARKS
GRAND FORKS    FLURRIES  21  15  78 SW10      30.11R WCI  10
GRAND FORKS AF NOT AVBL
DEVILS LAKE    CLEAR      9   0  66 W16       30.11R WCI  -9
FARGO          LGT SNOW  25  16  68 S17       30.15S WCI  12
GWINNER        CLOUDY    28  18  64 SW12      30.14S WCI  18
$$

CITY           SKY/WX    TMP DP  RH WIND       PRES   REMARKS
ABERDEEN       CLOUDY    26  16  65 W8        30.15R WCI  18
MOBRIDGE       CLEAR     21   8  57 N13       30.14R WCI   9
BUFFALO          N/A     19   7  59 W15       30.05R WCI   5
RAPID CITY     CLEAR     21  10  62 N13       30.10S WCI   9
GLASGOW        CLEAR     23   5  46 W18       30.12F WCI   9
SIDNEY         CLEAR     19   3  49 W9G16     30.17F WCI   9
WOLF POINT     CLEAR     25   2  37 W12       30.14F WCI  14
GLENDIVE       CLEAR     19   5  53 W12       30.14S WCI   7
MILES CITY     PTCLDY    22   8  55 NW12      30.14F WCI  10
BAKER          MOCLDY    19   5  54 NW13      30.11S WCI   6
$$

CITY           SKY/WX    TMP DP  RH WIND       PRES   REMARKS
BILLINGS       MOCLDY    26   7  44 S5        30.08S
GREAT FALLS    MOSUNNY   24   7  48 W12G17    30.13R WCI  13
$$



USA.gov is the U.S. government's official web portal to all federal, state and local government web resources and services.